Temperature
11 11 10 10 9 8 7 7 6 6 5 5 4 4 3 2 2 1 1 0 0 -0 -1 -2 -3 -4 -5 -5 -5 -6 -6 -5 -5 -5 -5 -5 -6 -6 -6 -6 -7 -7 -7
10 10 9 9 8 7 7 6 5 5 4 4 3 3 2 1 1 1 -0 -0 -1 -2 -3 -4 -5 -5 -5 -6 -6 -6 -6 -6 -6 -6 -6 -6 -6 -6 -7 -7 -7 -7 -8
9 9 8 7 7 6 6 5 5 4 3 3 2 2 1 1 0 -0 -1 -1 -2 -3 -4 -5 -5 -6 -6 -7 -7 -6 -7 -7 -7 -7 -7 -7 -6 -7 -7 -7 -8 -8 -8
8 8 7 6 6 5 5 4 4 3 3 2 2 1 1 0 -0 -1 -2 -2 -3 -4 -5 -5 -6 -7 -7 -7 -7 -7 -7 -7 -7 -7 -7 -7 -7 -7 -8 -8 -9 -9 -8
7 7 6 5 5 4 4 3 3 2 2 1 1 1 0 -1 -1 -2 -2 -4 -4 -5 -5 -6 -7 -7 -7 -7 -7 -7 -7 -7 -7 -7 -8 -7 -8 -8 -9 -9 -9 -9 -9
6 6 5 4 4 3 3 2 2 1 1 1 0 -0 -1 -1 -2 -2 -4 -5 -5 -6 -6 -7 -7 -7 -7 -8 -8 -7 -7 -7 -7 -7 -8 -8 -9 -9 -9 -9 -9 -9 -10
5 4 4 3 3 2 2 1 1 1 0 0 -0 -1 -2 -2 -3 -4 -5 -6 -6 -7 -7 -8 -8 -8 -8 -8 -8 -8 -8 -8 -8 -8 -9 -9 -9 -9 -9 -10 -10 -10 -10
4 3 3 2 2 1 1 0 0 -0 -0 -1 -1 -2 -2 -3 -4 -5 -6 -7 -7 -8 -8 -8 -8 -8 -8 -8 -8 -8 -8 -8 -8 -9 -9 -9 -9 -10 -10 -10 -10 -10 -10
3 2 2 2 1 1 0 -0 -1 -1 -1 -1 -2 -3 -3 -4 -5 -6 -8 -8 -8 -8 -8 -8 -8 -8 -8 -8 -8 -8 -9 -9 -9 -9 -10 -10 -10 -10 -10 -10 -10 -11 -11
2 2 1 1 0 -0 -1 -1 -1 -2 -2 -3 -3 -3 -4 -5 -6 -7 -8 -8 -8 -8 -8 -8 -8 -8 -8 -8 -9 -9 -9 -9 -10 -10 -10 -10 -10 -10 -11 -11 -11 -11 -11
1 1 0 -0 -1 -1 -1 -2 -2 -3 -3 -3 -3 -4 -4 -6 -7 -8 -8 -8 -8 -8 -8 -8 -8 -9 -9 -9 -10 -10 -10 -10 -10 -10 -11 -11 -11 -11 -11 -11 -11 -11 -11
1 0 -1 -1 -2 -2 -2 -2 -3 -3 -3 -3 -4 -4 -6 -7 -8 -8 -9 -8 -8 -8 -8 -9 -9 -9 -10 -10 -11 -11 -10 -10 -11 -11 -11 -11 -11 -11 -11 -11 -11 -11 -10
-0 -1 -1 -2 -2 -3 -3 -3 -3 -3 -4 -4 -6 -7 -8 -8 -8 -8 -9 -9 -8 -8 -9 -9 -10 -10 -11 -11 -11 -11 -11 -11 -12 -12 -12 -11 -11 -11 -11 -10 -10 -10 -10
-1 -2 -2 -3 -3 -3 -4 -4 -4 -4 -5 -6 -7 -8 -9 -9 -9 -9 -9 -9 -9 -9 -9 -10 -10 -11 -11 -11 -11 -11 -11 -12 -12 -12 -12 -11 -11 -11 -11 -11 -11 -10 -10
-2 -3 -3 -3 -3 -4 -4 -5 -5 -5 -7 -8 -9 -9 -10 -10 -9 -9 -9 -9 -9 -9 -10 -10 -11 -12 -11 -11 -11 -11 -12 -12 -12 -12 -11 -11 -11 -11 -10 -10 -10 -10 -10
-3 -3 -3 -4 -4 -4 -4 -4 -5 -6 -7 -8 -8 -9 -10 -10 -10 -9 -9 -9 -10 -11 -11 -12 -12 -12 -13 -12 -12 -12 -12 -12 -12 -11 -11 -10 -11 -10 -10 -10 -10 -10 -10
-3 -4 -4 -4 -4 -5 -5 -6 -6 -6 -7 -8 -8 -9 -10 -10 -10 -10 -10 -10 -11 -12 -12 -13 -13 -13 -13 -12 -12 -12 -12 -12 -11 -11 -10 -10 -10 -10 -10 -10 -10 -10 -10
-4 -4 -4 -5 -5 -5 -6 -7 -8 -8 -9 -8 -9 -9 -10 -11 -11 -11 -11 -11 -11 -12 -13 -13 -13 -13 -12 -12 -12 -12 -11 -11 -10 -10 -10 -9 -9 -10 -10 -10 -10 -10 -10
-4 -5 -5 -5 -6 -6 -7 -8 -8 -9 -9 -9 -10 -10 -10 -11 -11 -11 -12 -12 -13 -13 -13 -13 -13 -12 -12 -12 -11 -11 -11 -11 -10 -10 -9 -9 -9 -9 -9 -9 -9 -9 -9
-5 -5 -5 -6 -6 -7 -8 -8 -9 -9 -10 -10 -10 -11 -11 -12 -11 -11 -12 -12 -13 -13 -13 -13 -12 -12 -11 -11 -11 -11 -10 -10 -9 -9 -8 -8 -8 -8 -9 -9 -9 -9 -9
-5 -5 -6 -6 -7 -8 -8 -9 -9 -10 -10 -11 -11 -11 -12 -12 -12 -12 -12 -13 -13 -13 -13 -12 -11 -11 -11 -11 -10 -10 -10 -9 -8 -8 -8 -8 -8 -8 -8 -8 -8 -8 -8
-6 -6 -7 -7 -8 -8 -9 -9 -10 -10 -11 -11 -11 -11 -12 -12 -12 -12 -13 -13 -13 -12 -12 -12 -11 -11 -10 -10 -10 -9 -9 -8 -8 -7 -7 -7 -7 -8 -8 -8 -8 -8 -8
-7 -7 -7 -8 -8 -9 -9 -10 -10 -11 -11 -11 -12 -12 -12 -12 -12 -12 -13 -12 -12 -12 -11 -11 -10 -10 -10 -9 -9 -9 -8 -7 -7 -7 -7 -7 -7 -7 -7 -7 -7 -7 -8
-7 -7 -8 -8 -9 -10 -10 -10 -11 -11 -12 -12 -12 -12 -12 -12 -12 -12 -12 -12 -12 -11 -11 -10 -10 -10 -9 -8 -8 -8 -7 -7 -7 -7 -7 -7 -7 -7 -7 -7 -7 -7 -7
-8 -8 -9 -9 -10 -10 -10 -11 -11 -11 -12 -12 -12 -12 -12 -12 -12 -12 -12 -12 -11 -11 -10 -10 -10 -9 -8 -8 -7 -7 -7 -7 -7 -7 -7 -6 -7 -7 -7 -7 -6 -6 -7
-8 -9 -9 -10 -10 -11 -11 -11 -12 -12 -12 -12 -12 -12 -12 -12 -12 -12 -12 -11 -11 -11 -10 -10 -9 -9 -8 -7 -7 -7 -7 -7 -7 -7 -6 -6 -6 -7 -7 -6 -6 -6 -6
Wind_Speed
10 10 10 9 8 8 7 6 4 3 2 3 4 6 7 8 8 8 8 9 8 8 7 7 7 8 9 10 9 9 9 9 13 17 13 10 11 10 13 8 10 9 12
9 10 9 8 8 7 6 5 4 3 2 4 5 6 7 8 8 8 9 10 9 9 8 7 8 10 11 10 10 11 11 11 10 15 17 13 13 12 10 10 11 12 12
9 10 9 8 7 6 5 4 3 3 4 5 6 7 8 8 9 9 9 9 9 8 7 7 8 10 11 11 12 12 10 9 10 13 16 15 14 8 9 13 14 13 14
10 9 8 7 6 5 4 3 3 4 5 6 7 7 8 8 9 9 8 9 9 8 7 7 8 9 12 13 13 11 11 13 13 13 13 15 12 9 11 14 15 13 14
10 9 7 6 5 4 4 3 4 4 5 6 7 8 8 8 10 13 11 9 9 8 8 8 9 14 20 19 16 14 14 14 13 13 15 13 10 13 13 12 15 15 12
9 8 7 6 5 4 3 3 4 6 6 6 7 8 9 9 18 22 19 12 9 9 9 9 11 14 18 24 27 28 26 22 18 15 13 13 14 14 14 14 15 13 16
9 8 6 5 5 4 4 4 5 5 6 7 7 8 9 10 19 22 24 14 10 10 10 11 12 13 17 14 22 27 25 27 23 18 14 16 15 15 16 16 14 15 15
8 7 6 5 5 4 4 4 4 4 5 6 7 8 8 11 18 22 24 11 9 9 11 11 11 12 13 20 18 16 14 13 16 14 13 15 15 15 15 16 16 15 13
7 6 5 5 4 3 3 4 3 4 5 5 6 8 8 9 16 21 19 8 9 10 9 9 12 14 23 31 21 15 13 13 18 22 22 24 28 28 23 14 12 13 14
7 6 5 4 4 3 3 4 3 4 6 7 7 8 9 9 15 21 20 9 9 10 10 10 18 23 28 29 19 15 14 17 14 13 16 19 18 19 23 15 12 13 14
6 5 4 4 4 4 4 4 4 6 6 7 7 7 8 9 12 19 20 11 10 11 11 10 12 24 27 30 25 15 19 19 15 14 13 13 13 12 13 13 12 12 14
6 5 5 5 5 5 6 6 6 6 6 7 7 7 6 7 12 17 21 20 18 12 10 10 12 24 28 26 21 22 27 21 12 12 13 13 13 13 13 14 15 15 15
6 5 5 5 5 5 5 6 5 6 6 6 7 7 7 6 8 17 20 21 22 15 11 16 20 24 22 18 22 25 20 12 12 12 14 13 12 13 14 14 14 14 15
6 5 4 4 5 5 4 4 5 5 6 7 8 8 8 7 7 9 9 11 14 12 12 12 19 20 17 17 17 15 11 12 13 12 13 14 14 12 12 13 13 14 13
5 4 3 3 3 4 4 4 5 6 8 9 7 7 8 9 12 19 16 13 12 16 14 8 9 11 11 12 12 12 12 13 13 12 13 14 14 14 13 13 12 13 13
3 2 2 2 3 4 5 6 9 12 16 16 16 13 11 15 22 23 23 25 25 23 13 9 10 11 12 13 14 14 13 13 12 13 13 13 13 14 14 13 12 12 12
2 1 3 4 4 4 5 5 8 10 13 15 17 18 17 19 22 22 23 23 20 17 9 9 10 11 11 12 12 13 13 13 13 12 13 13 12 13 14 13 13 12 11
2 4 3 3 4 5 5 5 6 7 9 9 12 17 19 20 21 21 22 17 12 10 9 10 10 11 12 12 13 13 13 13 12 12 12 12 12 12 12 12 11 12 11
3 3 3 4 5 5 5 6 6 7 7 8 9 11 16 19 18 18 16 9 9 10 10 10 11 11 12 12 13 13 13 13 14 13 13 13 12 12 11 11 11 14 12
3 6 6 4 5 5 5 6 6 6 7 8 9 9 11 11 9 10 9 9 9 10 11 11 12 12 12 12 12 12 13 14 14 13 13 12 12 11 11 12 10 9 8
3 5 7 5 5 5 6 5 6 7 7 8 8 11 18 12 9 10 9 10 10 11 11 12 12 12 12 12 12 12 13 13 13 13 13 12 12 11 11 10 8 7 7
3 4 4 4 5 5 5 5 6 7 8 8 9 11 17 11 8 9 10 10 11 11 11 12 12 12 12 12 12 13 14 14 14 13 13 13 12 12 10 7 6 6 6
3 4 4 4 5 7 7 6 6 7 8 8 9 10 10 9 9 10 11 11 11 11 12 12 12 13 13 13 12 12 13 14 15 15 14 14 13 10 7 6 6 5 5
4 5 5 5 6 6 6 6 7 8 9 9 10 10 10 10 11 11 10 10 11 11 12 13 13 16 18 16 14 13 13 15 16 16 16 11 8 7 6 6 6 4 3
4 4 4 5 6 6 7 7 7 7 9 10 10 10 11 11 11 10 10 10 11 13 14 14 14 16 20 22 21 19 22 28 24 13 8 6 6 7 7 6 5 3 3
4 4 5 5 5 6 7 7 8 8 9 9 9 9 10 10 10 10 10 10 12 14 15 15 17 20 22 19 21 26 30 27 17 15 9 5 5 6 6 5 5 3 3
Wind_Direction
119 116 114 113 114 116 118 122 117 102 63 12 345 341 336 333 328 325 315 305 299 297 298 303 301 301 309 306 299 295 289 285 288 297 303 307 300 293 292 296 295 283 284
121 115 112 115 118 118 120 119 111 83 23 352 340 334 330 324 319 313 307 307 302 299 299 303 297 307 309 304 300 295 290 285 285 294 301 302 295 293 297 295 293 291 289
120 116 115 121 124 127 128 117 82 40 359 344 339 335 328 321 315 308 300 295 294 292 290 286 289 307 308 300 294 292 294 296 295 292 293 298 296 305 304 298 298 298 296
122 120 127 134 134 134 122 89 50 17 352 344 342 334 326 319 310 304 300 299 298 288 277 277 284 293 296 297 298 305 311 304 299 293 295 301 301 311 305 306 306 303 297
126 128 135 134 131 118 94 60 30 11 358 351 347 336 329 327 326 329 325 315 301 291 283 276 276 294 308 307 309 312 307 302 299 300 299 296 309 310 307 305 300 298 300
130 131 133 130 118 103 77 43 24 11 359 352 344 332 326 331 336 339 336 327 318 302 290 284 286 294 300 309 310 306 304 305 304 304 309 309 305 303 299 296 299 311 312
123 128 132 125 111 91 67 39 17 0 349 339 333 327 318 322 337 341 340 340 329 319 308 301 304 309 306 297 295 298 301 304 310 310 305 297 297 295 298 303 300 295 294
125 128 126 114 100 76 52 28 354 344 339 326 316 313 311 323 338 343 341 343 324 311 304 299 294 293 294 301 304 310 312 308 299 294 291 294 296 300 301 301 298 293 288
121 120 114 109 98 67 31 2 345 333 322 310 304 307 312 318 334 338 335 326 316 308 301 296 301 305 308 315 325 324 317 308 306 307 308 309 309 308 308 306 301 303 298
120 115 108 102 89 52 14 353 332 318 306 307 310 313 317 317 323 332 331 325 311 306 303 302 308 314 321 330 333 331 320 312 316 319 315 310 306 303 305 305 297 293 294
117 111 97 75 56 42 16 351 330 324 318 316 311 308 308 310 313 324 328 327 315 312 313 312 313 324 332 334 334 326 315 324 333 324 312 307 305 304 302 299 291 286 289
112 97 76 52 39 33 11 347 334 325 322 316 314 315 308 302 307 319 325 324 322 319 317 317 326 331 334 334 331 326 329 333 325 314 311 311 311 306 302 298 293 287 281
98 79 56 41 39 25 4 336 326 327 326 325 327 325 316 304 293 305 316 323 329 330 324 332 333 333 335 332 327 330 332 325 316 314 314 311 307 303 301 299 296 292 287
95 74 52 30 14 356 337 324 324 325 327 327 326 318 311 308 300 298 307 315 321 326 324 337 335 333 331 329 327 325 323 320 319 316 312 309 309 309 308 307 304 304 302
93 68 33 4 338 332 336 330 330 326 325 328 319 307 311 311 313 325 325 324 330 331 339 339 331 329 327 326 326 324 323 322 319 317 313 313 313 313 312 312 307 307 306
92 47 341 342 339 336 329 332 344 340 335 333 332 327 318 316 321 323 327 334 336 336 337 328 325 324 323 323 321 321 321 321 319 315 311 310 310 312 313 313 313 311 311
108 6 352 355 339 331 337 335 326 329 329 332 334 330 326 324 322 325 333 336 336 336 330 322 321 321 319 317 316 315 316 315 315 310 307 307 309 308 311 314 315 317 316
48 14 7 339 334 335 329 314 308 314 321 323 326 326 327 327 326 334 337 337 330 327 324 321 319 317 315 315 314 314 313 313 312 309 307 307 306 307 308 311 314 317 322
34 358 351 349 339 332 322 312 305 307 315 317 317 323 326 325 333 337 338 333 322 322 322 320 316 314 313 312 311 311 310 309 310 309 306 305 306 307 306 307 310 322 331
20 360 360 351 332 327 316 308 311 317 320 319 319 322 321 327 338 333 332 326 323 321 321 318 316 313 312 310 309 309 309 309 308 305 303 304 304 305 304 305 309 316 321
12 352 350 340 323 312 306 311 317 319 316 313 314 322 331 344 333 326 326 325 325 323 320 316 313 311 308 306 307 306 305 304 302 301 301 302 304 305 305 302 305 309 315
360 336 324 318 313 311 317 324 319 313 311 311 317 324 332 337 325 323 324 325 324 321 317 313 308 306 306 305 305 304 302 300 299 298 298 300 303 301 299 304 310 313 321
345 330 323 319 316 323 326 317 310 311 312 317 322 326 327 325 324 323 323 324 321 318 315 311 307 305 306 305 302 297 293 292 292 293 292 293 295 298 306 310 312 317 329
346 337 329 324 321 322 317 315 313 316 321 323 324 322 320 320 320 320 322 319 317 315 313 310 306 303 305 307 305 300 292 289 289 287 286 289 300 315 318 314 316 324 338
349 341 328 316 316 318 317 314 310 314 319 321 319 317 315 315 316 318 319 318 316 314 313 310 308 308 308 307 305 304 303 307 310 315 314 312 317 324 321 322 332 6 34
350 339 325 320 317 312 310 309 312 316 316 312 310 308 309 311 315 317 316 316 316 315 312 311 310 311 311 310 309 311 316 323 336 347 347 330 332 329 327 341 348 19 59
Height
1472 1474 1476 1478 1479 1480 1481 1481 1481 1479 1478 1476 1474 1470 1467 1463 1460 1456 1451 1447 1443 1439 1435 1430 1425 1420 1414 1408 1403 1399 1396 1392 1384 1373 1369 1365 1361 1357 1351 1346 1342 1338 1334
1471 1473 1474 1476 1477 1478 1479 1478 1478 1476 1475 1473 1470 1466 1463 1459 1455 1451 1446 1442 1438 1433 1428 1424 1419 1414 1409 1403 1398 1394 1390 1386 1381 1371 1362 1358 1353 1348 1342 1337 1331 1327 1322
1469 1471 1473 1474 1475 1476 1476 1476 1475 1473 1471 1468 1466 1462 1459 1454 1450 1446 1441 1437 1432 1427 1423 1418 1414 1408 1402 1398 1394 1389 1384 1379 1374 1367 1357 1351 1345 1340 1333 1327 1321 1315 1309
1468 1470 1472 1473 1474 1474 1474 1473 1471 1469 1467 1465 1462 1458 1454 1450 1445 1440 1436 1431 1427 1422 1418 1413 1408 1403 1398 1393 1389 1384 1379 1373 1366 1359 1351 1344 1338 1333 1327 1319 1310 1305 1299
1466 1468 1470 1471 1472 1472 1471 1470 1468 1466 1464 1461 1458 1454 1450 1445 1441 1436 1431 1426 1421 1416 1412 1408 1404 1399 1394 1390 1385 1379 1374 1366 1359 1353 1345 1336 1331 1325 1319 1312 1304 1296 1290
1465 1467 1468 1469 1469 1469 1468 1467 1465 1463 1460 1458 1453 1449 1445 1440 1436 1431 1426 1420 1415 1410 1406 1402 1397 1392 1388 1383 1379 1373 1368 1361 1354 1347 1339 1332 1325 1319 1312 1305 1298 1291 1282
1463 1465 1466 1467 1467 1467 1465 1464 1462 1459 1457 1453 1449 1444 1440 1435 1430 1425 1419 1414 1409 1405 1400 1395 1390 1386 1381 1375 1369 1364 1359 1354 1348 1342 1334 1327 1320 1314 1307 1299 1292 1285 1277
1462 1463 1465 1465 1465 1464 1462 1461 1459 1456 1453 1449 1445 1440 1435 1430 1424 1418 1413 1408 1403 1399 1394 1390 1385 1379 1373 1368 1362 1356 1349 1344 1339 1333 1328 1321 1315 1309 1302 1294 1286 1278 1270
1460 1462 1462 1462 1462 1461 1460 1458 1455 1452 1449 1445 1440 1435 1430 1424 1419 1414 1408 1403 1399 1394 1390 1385 1380 1375 1368 1363 1356 1348 1341 1335 1330 1325 1320 1314 1308 1301 1295 1287 1279 1272 1263
1459 1460 1460 1460 1459 1458 1457 1455 1451 1448 1444 1440 1436 1431 1425 1420 1414 1410 1406 1401 1395 1390 1384 1380 1375 1370 1364 1357 1350 1343 1334 1328 1322 1315 1309 1304 1298 1292 1286 1281 1273 1266 1257
1457 1458 1458 1458 1457 1456 1454 1451 1448 1444 1440 1436 1431 1426 1421 1416 1411 1407 1403 1399 1392 1385 1379 1373 1368 1363 1358 1352 1345 1337 1330 1324 1316 1309 1302 1295 1290 1285 1279 1272 1266 1260 1252
1456 1456 1456 1456 1455 1453 1451 1448 1444 1440 1435 1429 1424 1420 1416 1411 1407 1403 1399 1395 1389 1383 1376 1369 1363 1358 1352 1345 1338 1332 1326 1319 1311 1304 1298 1292 1285 1278 1271 1265 1259 1252 1246
1454 1454 1454 1453 1451 1449 1446 1443 1439 1434 1429 1424 1419 1415 1410 1406 1402 1398 1394 1390 1385 1379 1372 1365 1358 1353 1346 1339 1332 1327 1321 1313 1307 1301 1295 1288 1281 1273 1266 1259 1252 1246 1239
1452 1452 1451 1450 1448 1446 1442 1438 1434 1429 1424 1420 1415 1411 1406 1402 1398 1394 1389 1385 1379 1372 1366 1359 1353 1347 1341 1335 1328 1322 1316 1311 1306 1299 1291 1284 1276 1269 1262 1256 1248 1241 1234
1450 1450 1448 1447 1444 1442 1439 1435 1431 1427 1423 1419 1413 1408 1403 1398 1394 1391 1387 1380 1374 1368 1361 1354 1348 1342 1335 1330 1324 1319 1313 1307 1300 1294 1288 1280 1273 1266 1259 1253 1246 1239 1232
1448 1447 1445 1443 1441 1438 1435 1432 1429 1425 1421 1415 1410 1406 1400 1396 1391 1387 1382 1376 1370 1364 1357 1351 1345 1339 1334 1328 1321 1315 1309 1303 1297 1291 1285 1278 1272 1265 1257 1250 1244 1237 1230
1446 1444 1443 1441 1438 1435 1431 1427 1423 1419 1416 1412 1407 1402 1397 1392 1387 1383 1377 1371 1365 1360 1354 1348 1343 1337 1331 1325 1319 1312 1306 1300 1294 1288 1282 1276 1269 1262 1255 1248 1242 1236 1230
1443 1442 1440 1438 1435 1431 1428 1424 1419 1414 1410 1405 1402 1397 1393 1387 1383 1379 1372 1366 1360 1355 1351 1346 1340 1334 1328 1323 1316 1310 1303 1297 1291 1285 1280 1274 1267 1260 1254 1247 1242 1236 1231
1441 1439 1437 1435 1432 1429 1425 1421 1416 1411 1407 1402 1397 1392 1388 1383 1379 1374 1368 1362 1357 1352 1347 1342 1337 1331 1326 1320 1313 1307 1301 1294 1288 1283 1277 1271 1265 1259 1253 1247 1242 1237 1232
1439 1437 1435 1432 1429 1425 1422 1417 1413 1408 1404 1399 1394 1389 1384 1379 1374 1369 1364 1359 1355 1349 1344 1339 1333 1328 1323 1317 1310 1304 1298 1292 1286 1280 1275 1269 1263 1257 1252 1247 1242 1237 1233
1436 1434 1431 1428 1425 1421 1418 1414 1410 1405 1401 1396 1392 1387 1383 1378 1372 1367 1361 1357 1352 1347 1341 1336 1331 1325 1320 1313 1307 1301 1294 1289 1284 1278 1272 1267 1261 1256 1252 1247 1243 1239 1235
1433 1430 1427 1424 1421 1417 1414 1410 1407 1402 1398 1393 1388 1383 1379 1374 1369 1364 1359 1354 1349 1344 1339 1334 1328 1323 1316 1310 1304 1298 1292 1286 1281 1276 1270 1265 1260 1256 1251 1248 1244 1239 1236
1429 1426 1423 1420 1417 1414 1410 1406 1403 1399 1394 1390 1385 1380 1375 1371 1366 1361 1356 1351 1346 1341 1336 1331 1326 1320 1314 1308 1302 1296 1290 1285 1280 1274 1268 1263 1259 1256 1252 1248 1245 1241 1238
1425 1423 1420 1417 1413 1409 1406 1402 1398 1395 1390 1386 1381 1376 1372 1367 1362 1358 1353 1348 1343 1338 1334 1329 1324 1317 1310 1304 1299 1294 1289 1283 1277 1271 1267 1263 1260 1257 1253 1250 1247 1243 1240
1421 1419 1416 1412 1409 1405 1401 1398 1394 1390 1386 1382 1377 1373 1368 1363 1359 1354 1350 1345 1340 1335 1331 1327 1321 1315 1308 1302 1297 1292 1287 1281 1276 1271 1267 1264 1261 1258 1255 1252 1249 1246 1243
1417 1414 1411 1408 1404 1401 1398 1394 1390 1386 1381 1377 1373 1369 1364 1360 1355 1351 1347 1342 1337 1333 1329 1324 1319 1312 1306 1301 1297 1291 1286 1281 1276 1272 1268 1265 1261 1259 1256 1253 1251 1249 1246